User: anonymous   Login
Location: Unspecified
(0.0000°N, 0.0000°E)
Time: 14:46:49
(UTC+00:00)
Language:

TIANWANG 1B (TW-1B) - Orbit

View from above orbital plane
View from above orbital plane
View from above satellite
View from above satellite

Ground track
Ground track

The orbit data is extracted from the following two-line orbital elements,

1 40927U 15051C   17206.16222606 +.00006214 +00000-0 +14708-3 0  9991
2 40927 097.2362 245.4354 0012684 048.8811 356.0975 15.42067401102728
Epoch (UTC): 25 July 2017 03:53:36
Eccentricity: 0.0012684
inclination: 97.2362°
perigee height: 431 km
apogee height: 448 km
right ascension of ascending node: 245.4354°
argument of perigee: 48.8811°
revolutions per day: 15.42067401
mean anomaly at epoch: 356.0975°
orbit number at epoch: 10272

The dashed part of the orbit path shows where the satellite is in the earth's shadow,  

DLR